Flag for Brazil Weather past 2 weeks in Santarém, Pará, Brazil

91 °F

Passing clouds.

Feels Like: 100 °F
Forecast: N/A
Wind: 12 mph from East

Location: Santarem-Aeroporto

Current Time: Nov 25, 2015 at 6:11:40 PM

Latest Report: Nov 25, 2015 at 5:00 PM

Visibility: 5 mi

Pressure: 29.71 "Hg

Humidity: 56%

Dew point: 73 °F

Location of SantarémLocation

Historic Weather in Santarém — Graph


Santarém temperature yesterday

Maximum temperature yesterday: 97 °F (at 3:00 PM)
Minimum temperature yesterday: 77 °F (at 5:00 AM)
Average temperature yesterday: 86 °F

Past Weeks' High & Low Weather Summary

High97 °F (Nov 24, 3:00 PM)100% (Nov 12, 4:00 AM)29.92 "Hg (Nov 12, 4:00 AM)
Low72 °F (Nov 12, 5:00 AM)39% (Nov 24, 4:00 PM)29.65 "Hg (Nov 18, 6:00 PM)
Average85 °F69%29.78 "Hg
* Reported Nov 10 5:00 PM — Nov 25 5:00 PM, Santarém, Weather by CustomWeather, © 2015

Note: Actual official high and low records may vary slightly from our data, if they occured in-between our weather recording intervals... More about our weather records


Santarém weather history for previous 24 hours

Time TempWeatherWind HumidityBarometerVisibility
5:00 PM
Wed, Nov 25
91 °FPassing clouds.12 mph56%29.71 "Hg5 mi
4:00 PM91 °FPassing clouds.14 mph56%29.71 "Hg5 mi
3:00 PM95 °FPassing clouds.15 mph50%29.74 "Hg5 mi
2:00 PM93 °FPassing clouds.15 mph56%29.77 "Hg5 mi
1:00 PM91 °FPassing clouds.14 mph59%29.83 "Hg5 mi
12:00 PM90 °FPassing clouds.18 mph63%29.86 "Hg2 mi
11:00 AM88 °FPassing clouds.25 mph66%29.89 "Hg1 mi
10:00 AM88 °FScattered clouds.18 mph66%29.89 "Hg1 mi
9:00 AM84 °FScattered clouds.12 mph79%29.86 "Hg2 mi
8:00 AM82 °FPassing clouds.8 mph84%29.83 "Hg2 mi
7:00 AM81 °FPassing clouds.10 mph89%29.80 "Hg2 mi
6:00 AM81 °FClear.10 mph89%29.77 "Hg3 mi
5:00 AM81 °FClear.6 mph84%29.77 "Hg5 mi
4:00 AM82 °FClear.7 mph79%29.77 "Hg10 mi
3:00 AM82 °FClear.8 mph79%29.77 "Hg10 mi
2:00 AM82 °FClear.7 mph79%29.77 "Hg10 mi
1:00 AM82 °FClear.3 mph79%29.77 "Hg10 mi
12:00 AM82 °FClear.3 mph79%29.77 "Hg10 mi
11:00 PM
Tue, Nov 24
84 °FClear.5 mph74%29.77 "Hg10 mi
10:00 PM82 °FClear.2 mph79%29.77 "Hg10 mi
9:00 PM84 °FClear.3 mph74%29.74 "Hg10 mi
8:00 PM88 °FClear.6 mph66%29.71 "Hg10 mi
7:00 PM86 °FSunny.2 mph70%29.68 "Hg10 mi
6:00 PM93 °FSunny.7 mph53%29.65 "Hg10 mi
Weather by CustomWeather, © 2015

See weather overviewHow to use our weather pages